FW3031 Weather Reports


time (UTC)temp
C
wind
direction
speed
KPH
gust
KPH
rain 1hr
cm
rain 24hr
cm
rain mn
cm
humidity
%
barometer
mb
20260902165533 23 190 4.8 8.0 0.00 2.49 0.10 78 1019.8
20260902165032 23 190 0.0 1.6 0.00 2.49 0.10 78 1019.9
20260902164615 23 0 0.0 4.8 0.00 2.46 0.08 80 1017.6
20260902164534 23 190 0.0 4.8 0.00 2.49 0.10 81 1020.0
20260902164030 22 190 0.0 8.0 0.00 2.49 0.10 80 1020.2
20260902163530 22 190 0.0 8.0 0.00 2.49 0.10 81 1020.2
20260902163103 22 190 0.0 3.2 0.00 2.46 0.08 81 1017.8
20260902163030 22 190 0.0 4.8 0.00 2.49 0.10 82 1020.3
20260902162528 22 190 0.0 0.0 0.00 2.49 0.10 81 1020.4
20260902162031 22 190 0.0 0.0 0.00 2.49 0.10 80 1020.4
20260902161605 22 0 0.0 0.0 0.00 2.46 0.08 79 1018.0
20260902161528 22 190 0.0 0.0 0.00 2.49 0.10 79 1020.5
20260902161028 22 190 0.0 0.0 0.00 2.49 0.10 79 1020.5
20260902160526 22 190 0.0 0.0 0.00 2.49 0.10 79 1020.4
20260902160127 22 190 0.0 0.0 0.00 2.49 0.10 80 1020.3
20260902160109 22 0 0.0 0.0 0.00 2.46 0.08 79 1017.9
20260902155525 22 190 0.0 0.0 0.00 2.49 0.10 80 1020.4
20260902155025 22 190 0.0 0.0 0.00 2.49 0.10 80 1020.4
20260902154618 22 0 0.0 1.6 0.00 2.46 0.08 80 1017.8
20260902154526 22 190 0.0 0.0 0.00 2.49 0.10 80 1020.3
20260902154023 22 190 0.0 1.6 0.00 2.49 0.10 82 1020.3
20260902153524 22 190 0.0 1.6 0.00 2.49 0.10 83 1020.3
20260902153102 22 0 0.0 0.0 0.00 2.46 0.08 81 1017.9
20260902153027 22 190 0.0 0.0 0.00 2.49 0.10 82 1020.3
20260902152522 22 190 0.0 0.0 0.00 2.49 0.10 83 1020.4
20260902152023 22 190 0.0 3.2 0.00 2.49 0.10 83 1020.4
20260902151619 21 0 0.0 3.2 0.00 2.46 0.08 83 1018.1
20260902151521 21 190 0.0 3.2 0.00 2.49 0.10 83 1020.5
20260902151022 21 190 0.0 3.2 0.00 2.49 0.10 83 1020.5
20260902150521 21 190 0.0 3.2 0.00 2.49 0.10 83 1020.4
20260902150110 21 0 0.0 6.4 0.00 2.46 0.08 83 1017.9
20260902150021 21 190 0.0 4.8 0.00 2.49 0.10 83 1020.5
20260902145521 21 190 0.0 6.4 0.00 2.49 0.10 83 1020.5
20260902145024 21 190 0.0 8.0 0.00 2.49 0.10 83 1020.4
20260902144558 21 190 3.2 8.0 0.00 2.46 0.08 83 1018.0
20260902144532 21 190 1.6 8.0 0.00 2.49 0.10 83 1020.4
20260902144019 21 190 0.0 4.8 0.00 2.49 0.10 82 1020.4
20260902143518 21 190 1.6 6.4 0.00 2.49 0.10 83 1020.5
20260902143103 21 190 1.6 8.0 0.00 2.46 0.08 84 1018.0
20260902143018 21 190 0.0 8.0 0.00 2.49 0.10 84 1020.5
20260902142517 21 190 1.6 8.0 0.00 2.49 0.10 84 1020.4
20260902142016 21 190 1.6 8.0 0.00 2.49 0.10 86 1020.3
20260902141602 21 190 1.6 6.4 0.00 2.46 0.08 87 1017.7
20260902141517 21 190 1.6 6.4 0.00 2.49 0.10 88 1020.2
20260902141013 21 190 0.0 6.4 0.00 2.49 0.10 89 1020.1
20260902140512 20 190 0.0 3.2 0.00 2.49 0.10 91 1020.1
20260902140108 20 0 0.0 3.2 0.00 2.46 0.08 90 1017.5
20260902140011 20 190 0.0 3.2 0.00 2.49 0.10 91 1019.9
20260902135510 20 190 0.0 0.0 0.00 2.49 0.10 92 1019.8
20260902135009 20 190 0.0 0.0 0.00 2.49 0.10 93 1019.8
20260902134621 20 0 0.0 0.0 0.00 2.46 0.08 93 1017.3
20260902134511 20 190 0.0 0.0 0.00 2.49 0.10 93 1019.7
20260902134007 20 190 0.0 0.0 0.00 2.49 0.10 93 1019.6
20260902133509 20 190 0.0 0.0 0.00 2.49 0.10 93 1019.6
20260902133105 19 0 0.0 0.0 0.00 2.46 0.08 93 1017.2
20260902133008 19 190 0.0 0.0 0.00 2.49 0.10 93 1019.6
20260902132509 19 190 0.0 0.0 0.00 2.49 0.10 94 1019.4
20260902132008 19 190 0.0 0.0 0.00 2.49 0.10 94 1019.3
20260902131601 19 0 0.0 0.0 0.00 2.46 0.08 94 1016.7
20260902131509 19 190 0.0 0.0 0.00 2.49 0.10 95 1019.2
20260902131007 19 190 0.0 0.0 0.00 2.49 0.10 95 1019.1
20260902130508 19 190 0.0 0.0 0.00 2.49 0.10 95 1019.1
20260902130106 19 0 0.0 0.0 0.00 2.46 0.08 94 1016.5
20260902130006 19 190 0.0 0.0 0.00 2.49 0.10 95 1019.1
20260902125506 18 190 0.0 0.0 0.00 2.49 0.10 95 1019.0
20260902125005 19 190 0.0 1.6 0.00 2.49 0.10 95 1018.9
20260902124608 19 0 0.0 1.6 0.00 2.46 0.08 94 1016.4
20260902124505 18 190 0.0 1.6 0.00 2.49 0.10 95 1018.9
20260902124004 19 190 0.0 0.0 0.00 2.49 0.10 95 1018.9
20260902123504 19 190 0.0 3.2 0.00 2.49 0.10 95 1018.9
20260902123104 19 0 0.0 3.2 0.00 2.46 0.08 94 1016.4
20260902123004 19 190 0.0 3.2 0.00 2.49 0.10 94 1018.8
20260902122504 19 190 0.0 1.6 0.00 2.49 0.10 94 1018.8
20260902122003 19 190 0.0 1.6 0.00 2.49 0.10 94 1018.7
20260902121608 19 190 0.0 1.6 0.00 2.46 0.08 94 1016.3
20260902121503 19 190 0.0 1.6 0.00 2.49 0.10 94 1018.7
20260902121002 19 190 0.0 0.0 0.00 2.49 0.10 94 1018.8
20260902120502 19 190 0.0 0.0 0.00 2.49 0.10 94 1018.8
20260902120109 19 0 0.0 0.0 0.00 2.46 0.08 94 1016.3
20260902120002 19 190 0.0 0.0 0.00 2.49 0.10 94 1018.7
20260902115502 19 190 0.0 0.0 0.00 2.49 0.10 94 1018.7
20260902115002 19 190 0.0 0.0 0.00 2.49 0.10 94 1018.7
20260902114604 19 0 0.0 0.0 0.00 2.46 0.08 94 1016.3
20260902114501 19 190 0.0 0.0 0.00 0.00 0.10 94 1018.6
20260902114001 19 190 0.0 0.0 0.00 2.49 0.10 94 1018.6
20260902113502 19 190 0.0 0.0 0.00 2.49 0.10 94 1018.7
20260902113100 19 0 0.0 0.0 0.00 2.46 0.08 94 1016.3
20260902113001 19 190 0.0 0.0 0.00 2.49 0.10 95 1018.6
20260902112602 19 190 0.0 0.0 0.00 2.49 0.10 94 1018.6
20260902112002 19 190 0.0 1.6 0.00 2.49 0.10 95 1018.7
20260902111613 19 0 0.0 1.6 0.00 2.46 0.08 94 1016.4
20260902111559 19 190 0.0 1.6 0.00 2.49 0.10 94 1018.8
20260902111100 19 190 0.0 0.0 0.00 2.49 0.10 94 1018.7
20260902110600 19 190 0.0 0.0 0.00 2.49 0.10 94 1018.7
20260902110112 19 0 0.0 0.0 0.00 2.46 0.08 94 1016.4
20260902110059 19 190 0.0 0.0 0.00 2.49 0.10 94 1018.6
20260902105601 19 190 0.0 0.0 0.00 2.49 0.10 94 1018.7
20260902105100 19 190 0.0 0.0 0.00 2.49 0.10 94 1018.6
20260902104601 19 0 0.0 0.0 0.00 2.46 0.08 93 1016.4
20260902104058 19 190 0.0 0.0 0.00 2.49 0.10 94 1018.8
20260902103556 19 190 0.0 0.0 0.00 2.49 0.10 94 1018.8
20260902103120 19 0 0.0 0.0 0.00 2.46 0.08 93 1016.5
20260902103103 19 190 0.0 0.0 0.00 2.49 0.10 94 1018.8
20260902102600 19 190 0.0 0.0 0.00 2.49 0.10 94 1018.7
20260902102056 19 190 0.0 0.0 0.00 2.49 0.10 94 1018.7
20260902101616 19 0 0.0 0.0 0.00 2.46 0.08 93 1016.6
20260902101556 19 190 0.0 0.0 0.00 2.49 0.10 94 1018.8
20260902101056 19 190 0.0 0.0 0.00 2.49 0.10 94 1018.8
20260902100557 19 190 0.0 0.0 0.00 2.49 0.10 94 1018.8
20260902100112 19 190 0.0 0.0 0.00 2.49 0.10 94 1018.8
20260902095556 19 190 0.0 0.0 0.00 2.49 0.10 94 1018.8
20260902095054 19 190 0.0 1.6 0.00 2.49 0.10 94 1018.8
20260902094602 19 0 0.0 0.0 0.00 2.46 0.08 93 1016.6
20260902094554 19 190 0.0 0.0 0.00 2.49 0.10 94 1018.7
20260902094054 19 190 0.0 0.0 0.00 2.49 0.10 93 1018.6
20260902093553 19 190 0.0 0.0 0.00 2.49 0.10 93 1018.6
20260902093138 19 0 0.0 0.0 0.00 2.46 0.08 93 1016.4
20260902093053 19 190 0.0 0.0 0.00 2.49 0.10 93 1018.7
20260902092555 19 190 0.0 0.0 0.00 2.49 0.10 94 1018.6
20260902092056 19 190 0.0 0.0 0.00 2.49 0.10 93 1018.7
20260902091607 19 190 0.0 0.0 0.00 2.49 0.10 93 1018.7
20260902091601 19 0 0.0 0.0 0.00 2.46 0.08 92 1016.5
20260902091051 19 190 0.0 0.0 0.00 2.49 0.10 93 1018.8
20260902090551 19 190 0.0 0.0 0.00 2.49 0.10 93 1018.9
20260902090105 19 0 0.0 0.0 0.00 2.46 0.08 92 1016.7
20260902090050 19 190 0.0 0.0 0.00 2.49 0.10 93 1019.0
20260902085552 19 190 0.0 0.0 0.00 2.49 0.10 93 1019.1
20260902085049 19 190 0.0 0.0 0.00 2.49 0.10 93 1019.2
20260902084601 19 0 0.0 0.0 0.00 2.46 0.08 93 1017.0
20260902084549 19 190 0.0 0.0 0.00 2.49 0.10 93 1019.2
20260902084049 19 190 0.0 0.0 0.00 2.49 0.10 93 1019.3
20260902083549 19 190 0.0 0.0 0.00 2.49 0.10 93 1019.3
20260902083100 19 0 0.0 0.0 0.00 2.46 0.08 92 1017.1
20260902083049 19 190 0.0 0.0 0.03 2.49 0.10 93 1019.4
20260902082552 19 190 0.0 0.0 0.03 2.49 0.10 93 1019.3
20260902082049 19 190 0.0 0.0 0.03 2.49 0.10 94 1019.4
20260902081624 19 0 0.0 0.0 0.00 2.46 0.08 93 1017.2
20260902081548 19 190 0.0 0.0 0.03 2.49 0.10 94 1019.5
20260902081048 19 190 0.0 0.0 0.03 2.49 0.10 94 1019.4
20260902080548 19 190 0.0 0.0 0.03 2.49 0.10 93 1019.4
20260902080103 19 190 0.0 0.0 0.03 2.49 0.10 93 1019.4
20260902080100 19 0 0.0 0.0 0.00 2.46 0.08 93 1017.2
20260902075546 19 190 0.0 0.0 0.03 2.49 0.10 93 1019.4
20260902075048 19 190 0.0 0.0 0.03 2.49 0.10 93 1019.2
20260902074607 19 0 0.0 0.0 0.00 2.46 0.08 93 1017.0
20260902074546 19 190 0.0 0.0 0.03 2.49 0.10 93 1019.2
20260902074048 19 190 0.0 0.0 0.03 2.49 0.10 93 1019.1
20260902073545 19 190 0.0 0.0 0.03 2.49 0.10 93 1019.0
20260902073105 19 0 0.0 0.0 0.00 2.44 0.08 93 1017.0
20260902073049 19 190 0.0 0.0 0.00 2.46 0.08 93 1019.1
20260902072545 19 190 0.0 0.0 0.00 2.46 0.08 93 1019.2
20260902072043 19 190 0.0 0.0 0.03 2.46 0.08 93 1019.2
20260902071606 19 0 0.0 0.0 0.00 2.44 0.08 92 1017.2
20260902071556 19 190 0.0 0.0 0.03 2.46 0.08 92 1019.3
20260902071042 19 190 0.0 0.0 0.05 2.46 0.08 93 1019.4
20260902070540 19 190 0.0 3.2 0.05 2.46 0.08 93 1019.5
20260902070104 19 0 0.0 4.8 0.08 2.44 0.08 93 1017.6
20260902070040 19 190 0.0 4.8 0.08 2.46 0.08 93 1019.6
20260902065539 19 190 0.0 4.8 0.13 2.46 0.08 93 1019.7
20260902065038 19 190 1.6 4.8 0.15 2.46 0.08 93 1020.0
20260902064620 19 0 0.0 3.2 0.15 2.44 0.08 92 1018.0
20260902064537 19 190 0.0 3.2 0.15 2.46 0.08 93 1020.1
20260902064036 19 190 0.0 4.8 0.18 2.46 0.08 93 1020.1
20260902063535 19 190 0.0 4.8 0.20 2.46 0.08 93 1020.2
20260902063102 20 190 0.0 3.2 0.20 2.44 0.08 93 1018.2
20260902063043 20 190 0.0 3.2 0.23 2.46 0.08 93 1020.3
20260902062534 20 190 0.0 3.2 0.23 2.46 0.08 93 1020.5
20260902062033 20 190 0.0 3.2 0.23 2.44 0.05 93 1020.6
20260902061606 20 0 0.0 4.8 0.28 2.44 0.05 92 1018.4
20260902061544 20 190 0.0 4.8 0.30 2.44 0.05 93 1020.6
20260902061032 20 190 1.6 4.8 0.33 2.41 0.05 92 1020.7
20260902060532 20 190 0.0 0.0 0.33 2.39 0.03 93 1020.7
20260902060112 20 0 0.0 0.0 0.33 2.36 0.00 92 1018.7
20260902060033 20 190 0.0 0.0 0.36 2.39 0.00 93 1020.9
20260902055530 20 190 0.0 0.0 0.33 2.34 2.34 92 1020.9
20260902055029 20 190 0.0 0.0 0.36 2.31 2.31 93 1020.9
20260902054603 20 0 0.0 0.0 0.36 2.29 2.29 91 1018.7
20260902054535 20 190 0.0 0.0 0.36 2.31 2.31 92 1020.8
20260902054028 20 190 0.0 0.0 0.36 2.29 2.29 92 1020.8
20260902053527 20 190 0.0 1.6 0.38 2.26 2.26 91 1020.7
20260902053059 20 0 0.0 3.2 0.38 2.24 2.24 91 1018.6
20260902053027 20 190 0.0 3.2 0.41 2.24 2.24 91 1020.6
20260902052528 20 190 0.0 0.0 0.38 2.21 2.21 91 1020.5
20260902052025 20 190 0.0 0.0 0.33 2.18 2.18 91 1020.5
20260902051604 20 0 0.0 0.0 0.30 2.13 2.13 91 1018.3
20260902051529 20 190 0.0 0.0 0.33 2.13 2.13 91 1020.4
20260902051024 20 190 0.0 0.0 0.33 2.11 2.11 92 1020.3
20260902050525 20 190 0.0 0.0 0.30 2.06 2.06 92 1020.3
20260902050115 20 0 0.0 0.0 0.28 2.03 2.03 90 1018.2
20260902050031 20 190 0.0 0.0 0.28 2.03 2.03 91 1020.3
20260902045524 20 190 0.0 1.6 0.28 2.01 2.01 91 1020.3
20260902045024 20 190 0.0 1.6 0.23 1.96 1.96 90 1020.3
20260902044610 20 0 0.0 3.2 0.23 1.93 1.93 90 1018.3
20260902044529 20 190 0.0 3.2 0.23 1.93 1.93 90 1020.3
20260902044022 20 190 0.0 3.2 0.23 1.91 1.91 89 1020.1
20260902043521 20 190 0.0 3.2 0.23 1.88 1.88 92 1019.9
20260902043107 20 190 0.0 4.8 0.28 1.83 1.83 92 1018.0
20260902043021 20 190 0.0 4.8 0.28 1.83 1.83 92 1019.9
20260902042521 20 190 3.2 4.8 0.51 1.83 1.83 92 1019.9
20260902042022 20 190 0.0 3.2 0.71 1.83 1.83 93 1019.9
20260902041604 20 0 0.0 1.6 1.12 1.80 1.80 92 1017.9
20260902041530 20 190 0.0 1.6 1.17 1.80 1.80 93 1019.7
20260902041017 20 190 0.0 1.6 1.65 1.78 1.78 92 1019.4
20260902040517 19 190 0.0 0.0 1.65 1.75 1.75 91 1019.3
20260902040113 20 0 0.0 4.8 1.65 1.73 1.73 90 1017.5
20260902040018 19 190 0.0 4.8 1.65 1.75 1.75 91 1019.3
20260902035517 20 190 1.6 4.8 1.65 1.73 1.73 89 1019.3
20260902035016 20 190 0.0 1.6 1.68 1.73 1.73 91 1019.3
20260902034606 20 0 0.0 3.2 1.65 1.68 1.68 90 1017.4
20260902034516 20 190 0.0 3.2 1.65 1.70 1.70 90 1019.2
20260902034020 20 190 0.0 11.3 1.68 1.68 1.68 90 1019.1
20260902033514 20 190 0.0 11.3 1.63 1.63 1.63 89 1019.1
20260902033109 20 0 0.0 14.5 1.55 1.55 1.55 89 1017.3
20260902033014 20 190 0.0 14.5 1.55 1.55 1.55 89 1019.2
20260902032517 20 190 4.8 14.5 1.30 1.30 1.30 87 1019.4
20260902032013 20 190 1.6 11.3 1.09 1.09 1.09 90 1019.3
20260902031605 21 0 0.0 6.4 0.64 0.64 0.64 89 1017.5
20260902031512 21 190 0.0 6.4 0.51 0.51 0.51 88 1019.2
20260902031010 21 190 0.0 11.3 0.15 0.15 0.15 87 1018.7
20260902030509 21 190 3.2 14.5 0.10 0.10 0.10 87 1018.6
20260902030008 21 190 4.8 17.7 0.08 0.08 0.08 85 1018.4
20260902025508 22 190 1.6 24.1 0.05 0.05 0.05 84 1018.1
20260902025007 22 190 4.8 24.1 0.05 0.05 0.05 82 1017.8
20260902024612 23 190 8.0 20.9 0.03 0.03 0.03 79 1016.2
20260902024510 23 190 4.8 20.9 0.03 0.03 0.03 80 1017.8
20260902024006 23 190 3.2 17.7 0.00 0.00 0.00 75 1017.5
20260902023506 24 190 6.4 17.7 0.00 0.00 0.00 71 1017.1
20260902023107 24 190 3.2 16.1 0.00 0.00 0.00 70 1015.2
20260902023015 24 190 3.2 16.1 0.00 0.00 0.00 70 1016.9
20260902022507 24 190 4.8 16.1 0.00 0.00 0.00 69 1016.6
20260902022006 25 190 4.8 14.5 0.00 0.00 0.00 66 1016.3
20260902021605 25 190 4.8 24.1 0.00 0.00 0.00 63 1014.4
20260902021506 25 190 3.2 24.1 0.00 0.00 0.00 63 1016.0
20260902021006 26 190 8.0 24.1 0.00 0.00 0.00 60 1015.8
20260902020507 27 190 6.4 16.1 0.00 0.00 0.00 58 1015.4
20260902020118 27 0 1.6 12.9 0.00 0.00 0.00 56 1013.3
20260902020005 27 190 1.6 9.7 0.00 0.00 0.00 56 1015.0
20260902015506 28 190 1.6 12.9 0.00 0.00 0.00 55 1014.9
20260902015004 28 190 0.0 8.0 0.00 0.00 0.00 52 1014.7
20260902014606 28 190 3.2 8.0 0.00 0.00 0.00 51 1012.7
20260902014504 28 190 3.2 8.0 0.00 0.00 0.00 51 1014.5
20260902014003 28 190 0.0 6.4 0.00 0.00 0.00 50 1014.2
20260902013503 28 190 0.0 3.2 0.00 0.00 0.00 48 1014.0
20260902013106 28 0 0.0 0.0 0.00 0.00 0.00 47 1012.2
20260902013003 28 190 0.0 0.0 0.00 0.00 0.00 48 1013.9
20260902012503 28 190 0.0 4.8 0.00 0.00 0.00 47 1013.7
20260902012003 29 190 0.0 4.8 0.00 0.00 0.00 46 1013.4
20260902011602 29 190 0.0 0.0 0.00 0.00 0.00 46 1011.7
20260902011507 29 190 0.0 0.0 0.00 0.00 0.00 47 1013.3
20260902011003 29 190 0.0 0.0 0.00 0.00 0.00 46 1013.2
20260902010502 29 190 0.0 3.2 0.00 0.00 0.00 46 1013.1
20260902010106 30 190 0.0 8.0 0.00 0.00 0.00 43 1011.6
20260902010005 30 190 0.0 8.0 0.00 0.00 0.00 44 1013.2
20260902005502 30 190 0.0 8.0 0.00 0.00 0.00 44 1013.1
20260902005002 30 190 0.0 3.2 0.00 0.00 0.00 44 1012.9
20260902004609 30 190 0.0 4.8 0.00 0.00 0.00 43 1011.2
20260902004502 30 190 0.0 4.8 0.00 0.00 0.00 43 1012.8
20260902004002 30 190 1.6 4.8 0.00 0.00 0.00 43 1012.7
20260902003501 30 190 0.0 4.8 0.00 0.00 0.00 43 1012.6
20260902003110 30 0 0.0 6.4 0.00 0.00 0.00 42 1011.0
20260902003001 30 190 0.0 6.4 0.00 0.00 0.00 43 1012.5
20260902002500 30 190 1.6 6.4 0.00 0.00 0.00 43 1012.5
20260902002003 30 190 1.6 8.0 0.00 0.00 0.00 43 1012.3
20260902001603 30 190 1.6 9.7 0.00 0.00 0.00 42 1010.6
20260902001502 30 190 1.6 8.0 0.00 0.00 0.00 43 1012.1
20260902001000 30 190 1.6 11.3 0.00 0.00 0.00 43 1012.0
20260902000602 30 190 4.8 11.3 0.00 0.00 0.00 42 1012.0
20260902000104 31 190 3.2 9.7 0.00 0.00 0.00 41 1010.5
20260902000100 30 190 1.6 9.7 0.00 0.00 0.00 42 1012.0
20260902000001 30 190 1.6 9.7 0.00 0.00 0.00 42 1012.0
20260901235559 31 190 3.2 11.3 0.00 0.00 0.00 42 1012.1
20260901235059 31 190 3.2 11.3 0.00 0.00 0.00 42 1012.1
20260901234605 31 190 4.8 16.1 0.00 0.00 0.00 41 1010.5
20260901234559 31 190 3.2 12.9 0.00 0.00 0.00 41 1012.0
20260901234059 31 190 6.4 16.1 0.00 0.00 0.00 39 1011.9
20260901233559 31 190 6.4 14.5 0.00 0.00 0.00 39 1011.9
20260901233106 31 190 4.8 14.5 0.00 0.00 0.00 39 1010.2
20260901233103 31 190 4.8 14.5 0.00 0.00 0.00 39 1011.8
20260901232557 31 190 3.2 14.5 0.00 0.00 0.00 41 1011.8
20260901232058 31 190 4.8 14.5 0.00 0.00 0.00 40 1011.7
20260901231608 32 190 4.8 12.9 0.00 0.00 0.00 39 1010.0
20260901231558 31 190 6.4 12.9 0.00 0.00 0.00 39 1011.5
20260901231056 32 190 3.2 12.9 0.00 0.00 0.00 40 1011.4
20260901230557 32 190 3.2 12.9 0.00 0.00 0.00 40 1011.4
20260901230057 32 190 6.4 12.9 0.00 0.00 0.00 39 1011.4
20260901225557 32 190 4.8 11.3 0.00 0.00 0.00 40 1011.4
20260901225055 32 190 4.8 12.9 0.00 0.00 0.00 40 1011.5
20260901224601 32 190 6.4 12.9 0.00 0.00 0.00 41 1010.0
20260901224556 32 190 4.8 12.9 0.00 0.00 0.00 41 1011.6
20260901224054 32 190 4.8 11.3 0.00 0.00 0.00 40 1011.5
20260901223555 32 190 4.8 11.3 0.00 0.00 0.00 40 1011.7
20260901223105 32 190 4.8 14.5 0.00 0.00 0.00 40 1010.1
20260901223055 32 190 4.8 14.5 0.00 0.00 0.00 41 1011.6
20260901222553 32 190 3.2 14.5 0.00 0.00 0.00 42 1011.6
20260901222053 32 190 8.0 14.5 0.00 0.00 0.00 42 1011.7
20260901221604 32 190 6.4 16.1 0.00 0.00 0.00 41 1010.0
20260901221553 32 190 4.8 14.5 0.00 0.00 0.00 41 1011.6
20260901221053 32 190 8.0 16.1 0.00 0.00 0.00 41 1011.7
20260901220553 33 190 6.4 16.1 0.00 0.00 0.00 42 1011.6
20260901220105 33 190 6.4 16.1 0.00 0.00 0.00 42 1009.9
20260901220052 33 190 3.2 16.1 0.00 0.00 0.00 43 1011.6
20260901215550 33 190 6.4 16.1 0.00 0.00 0.00 42 1011.6
20260901215049 32 190 4.8 16.1 0.00 0.00 0.00 42 1011.8
20260901214610 33 190 0.0 14.5 0.00 0.00 0.00 40 1010.2
20260901214547 33 190 0.0 9.7 0.00 0.00 0.00 41 1011.9
20260901214047 32 190 3.2 14.5 0.00 0.00 0.00 42 1012.0
20260901213547 32 190 8.0 14.5 0.00 0.00 0.00 42 1012.0
20260901213121 33 190 1.6 12.9 0.00 0.00 0.00 40 1010.6
20260901213045 32 190 4.8 12.9 0.00 0.00 0.00 41 1012.1
20260901212545 33 190 6.4 12.9 0.00 0.00 0.00 39 1012.2
20260901212044 33 190 0.0 6.4 0.00 0.00 0.00 36 1012.4
20260901211602 33 190 1.6 9.7 0.00 0.00 0.00 36 1010.7
20260901211542 33 190 0.0 6.4 0.00 0.00 0.00 37 1012.5
20260901211040 32 190 0.0 9.7 0.00 0.00 0.00 36 1012.7
20260901210540 32 190 3.2 11.3 0.00 0.00 0.00 37 1012.8
20260901210109 32 190 0.0 6.4 0.00 0.00 0.00 38 1011.0
20260901210041 32 190 0.0 6.4 0.00 0.00 0.00 38 1012.8
20260901205538 32 190 1.6 8.0 0.00 0.00 0.00 38 1012.9
20260901205037 32 190 0.0 8.0 0.00 0.00 0.00 40 1013.0
20260901204604 32 0 3.2 8.0 0.00 0.00 0.00 39 1011.3
20260901204537 32 190 1.6 8.0 0.00 0.00 0.00 39 1013.0
20260901204034 32 190 4.8 8.0 0.00 0.00 0.00 40 1013.2
20260901203535 32 190 3.2 8.0 0.00 0.00 0.00 41 1013.3
20260901203136 32 190 1.6 6.4 0.00 0.00 0.00 41 1011.7
20260901203032 32 190 3.2 6.4 0.00 0.00 0.00 42 1013.4
20260901202529 31 190 1.6 6.4 0.00 0.00 0.00 42 1013.5
20260901202030 31 190 0.0 6.4 0.00 0.00 0.00 43 1013.7
20260901201606 31 190 1.6 8.0 0.00 0.00 0.00 42 1012.0
20260901201528 31 190 1.6 4.8 0.00 0.00 0.00 44 1013.8
20260901201027 31 190 0.0 11.3 0.00 0.00 0.00 43 1014.0
20260901200526 31 190 3.2 11.3 0.00 0.00 0.00 43 1014.2
20260901200110 31 190 3.2 11.3 0.00 0.00 0.00 45 1012.3
20260901200040 31 190 1.6 9.7 0.00 0.00 0.00 45 1014.2
20260901195524 31 190 1.6 11.3 0.00 0.00 0.00 45 1014.4
20260901195021 31 190 4.8 11.3 0.00 0.00 0.00 45 1014.7
20260901194607 31 190 4.8 16.1 0.00 0.00 0.00 45 1012.8
20260901194520 30 190 3.2 16.1 0.00 0.00 0.00 45 1014.8
20260901194019 31 190 3.2 9.7 0.00 0.00 0.00 46 1014.8
20260901193518 31 190 3.2 11.3 0.00 0.00 0.00 45 1015.0
20260901193127 31 0 3.2 12.9 0.00 0.00 0.00 45 1013.2
20260901193018 30 190 3.2 12.9 0.00 0.00 0.00 46 1015.1
20260901192516 30 190 3.2 11.3 0.00 0.00 0.00 46 1015.2
20260901192017 30 190 4.8 12.9 0.00 0.00 0.00 47 1015.2
20260901191612 30 190 8.0 12.9 0.00 0.00 0.00 47 1013.6
20260901191522 30 190 6.4 12.9 0.00 0.00 0.00 47 1015.5
20260901191019 30 190 4.8 14.5 0.00 0.00 0.00 47 1015.6
20260901190513 30 190 4.8 14.5 0.00 0.00 0.00 48 1015.6
20260901190114 30 190 3.2 9.7 0.00 0.00 0.00 48 1013.8
20260901190012 30 190 3.2 9.7 0.00 0.00 0.00 49 1015.7
20260901185511 30 190 3.2 12.9 0.00 0.00 0.00 48 1015.8
20260901185009 30 190 3.2 12.9 0.00 0.00 0.00 47 1015.9
20260901184606 30 190 6.4 11.3 0.00 0.00 0.00 47 1014.0
20260901184509 30 190 4.8 11.3 0.00 0.00 0.00 48 1015.9
20260901184008 30 190 4.8 9.7 0.00 0.00 0.00 47 1016.1
20260901183507 30 190 4.8 8.0 0.00 0.00 0.00 47 1016.2
20260901183103 30 190 1.6 9.7 0.00 0.00 0.00 47 1014.2
20260901183006 30 190 1.6 9.7 0.00 0.00 0.00 48 1016.2
20260901182504 30 190 3.2 9.7 0.00 0.00 0.00 48 1016.3
20260901182003 29 190 0.0 9.7 0.00 0.00 0.00 49 1016.4
20260901181606 29 190 1.6 8.0 0.00 0.00 0.00 48 1014.4
20260901181502 29 190 3.2 8.0 0.00 0.00 0.00 48 1016.4
20260901181001 29 190 1.6 11.3 0.00 0.00 0.00 48 1016.5
20260901180601 29 190 1.6 11.3 0.00 0.00 0.00 48 1016.6
20260901180104 29 190 1.6 9.7 0.00 0.00 0.00 48 1014.6
20260901175600 29 190 1.6 9.7 0.00 0.00 0.00 48 1016.7
20260901175057 28 190 1.6 11.3 0.00 0.00 0.00 50 1016.8
20260901174608 28 190 4.8 11.3 0.00 0.00 0.00 49 1014.9
20260901174604 28 190 4.8 11.3 0.00 0.00 0.00 49 1016.8
20260901174057 28 190 3.2 9.7 0.00 0.00 0.00 50 1016.9
20260901173600 28 190 4.8 12.9 0.00 0.00 0.00 50 1016.9
20260901173104 28 190 4.8 12.9 0.00 0.00 0.00 48 1015.0
20260901173059 28 190 6.4 12.9 0.00 0.00 0.00 49 1016.9
20260901172555 28 190 0.0 9.7 0.00 0.00 0.00 57 1017.1
20260901172055 28 190 3.2 9.7 0.00 0.00 0.00 55 1017.1
20260901171615 28 0 0.0 6.4 0.00 0.00 0.00 56 1015.2
20260901171553 28 190 0.0 6.4 0.00 0.00 0.00 56 1017.2
20260901171053 28 190 1.6 6.4 0.00 0.00 0.00 56 1017.2
20260901170551 28 190 1.6 6.4 0.00 0.00 0.00 56 1017.3
20260901170145 27 190 0.0 3.2 0.00 0.00 0.00 57 1017.3
20260901170109 27 0 0.0 3.2 0.00 0.00 0.00 57 1015.5